Time,TemperatureF,DewpointF,PressureIn,WindDirection,WindDirectionDegrees,WindSpeedMPH,WindSpeedGustMPH,Humidity,HourlyPrecipIn,Conditions,Clouds,dailyrainin,SoftwareType,DateUTC
2013-11-02 00:22:00,51.0,40.0,30.06,West,274,1.0,2.0,66,0.00,,,0.00,,2013-11-02 05:22:00,
2013-11-02 00:52:00,51.0,41.0,30.06,WNW,301,0.0,1.0,68,0.00,,,0.00,,2013-11-02 05:52:00,
2013-11-02 01:22:00,51.0,40.0,30.07,WNW,287,1.0,2.0,65,0.00,,,0.00,,2013-11-02 06:22:00,
2013-11-02 01:52:00,50.0,41.0,30.08,WNW,285,1.0,2.0,71,0.00,,,0.00,,2013-11-02 06:52:00,
2013-11-02 02:22:00,49.0,40.0,30.09,WNW,285,1.0,2.0,71,0.00,,,0.00,,2013-11-02 07:22:00,
2013-11-02 02:52:00,49.0,40.0,30.10,WNW,285,1.0,2.0,70,0.00,,,0.00,,2013-11-02 07:52:00,
2013-11-02 03:22:00,48.0,39.0,30.11,WNW,282,0.0,1.0,70,0.00,,,0.00,,2013-11-02 08:22:00,
2013-11-02 03:52:00,49.0,39.0,30.11,WNW,289,1.0,2.0,67,0.00,,,0.00,,2013-11-02 08:52:00,
2013-11-02 04:21:00,49.0,36.0,30.12,WNW,302,1.0,5.0,60,0.00,,,0.00,,2013-11-02 09:21:00,
2013-11-02 04:53:00,49.0,36.0,30.13,WNW,282,1.0,3.0,60,0.00,,,0.00,,2013-11-02 09:53:00,
2013-11-02 05:23:00,46.0,37.0,30.14,West,270,1.0,2.0,70,0.00,,,0.00,,2013-11-02 10:23:00,
2013-11-02 05:53:00,46.0,36.0,30.15,WNW,289,1.0,2.0,69,0.00,,,0.00,,2013-11-02 10:53:00,
2013-11-02 06:22:00,45.0,36.0,30.16,WNW,294,0.0,2.0,71,0.00,,,0.00,,2013-11-02 11:22:00,
2013-11-02 06:52:00,45.0,36.0,30.17,WNW,292,1.0,2.0,70,0.00,,,0.00,,2013-11-02 11:52:00,
2013-11-02 07:21:00,44.0,35.0,30.18,WNW,287,1.0,2.0,71,0.00,,,0.00,,2013-11-02 12:21:00,
2013-11-02 07:52:00,44.0,34.0,30.19,WNW,301,2.0,3.0,69,0.00,,,0.00,,2013-11-02 12:52:00,
2013-11-02 08:22:00,44.0,34.0,30.21,WNW,299,2.0,5.0,69,0.00,,,0.00,,2013-11-02 13:22:00,
2013-11-02 08:52:00,44.0,34.0,30.22,WNW,295,1.0,5.0,69,0.00,,,0.00,,2013-11-02 13:52:00,
2013-11-02 09:21:00,46.0,35.0,30.23,WNW,294,3.0,10.0,64,0.00,,,0.00,,2013-11-02 14:21:00,
2013-11-02 09:52:00,48.0,35.0,30.24,West,272,3.0,5.0,61,0.00,,,0.00,,2013-11-02 14:52:00,
2013-11-02 10:22:00,49.0,34.0,30.25,North,356,2.0,7.0,56,0.00,,,0.00,,2013-11-02 15:22:00,
2013-11-02 10:53:00,51.0,34.0,30.26,NNW,330,4.0,10.0,53,0.00,,,0.00,,2013-11-02 15:53:00,
2013-11-02 11:23:00,53.0,32.0,30.27,NNE,28,3.0,10.0,45,0.00,,,0.00,,2013-11-02 16:23:00,
2013-11-02 11:54:00,55.0,33.0,30.28,NNW,340,2.0,14.0,43,0.00,,,0.00,,2013-11-02 16:54:00,
2013-11-02 12:22:00,55.0,31.0,30.27,WNW,284,4.0,16.0,39,0.00,,,0.00,,2013-11-02 17:22:00,
2013-11-02 12:53:00,56.0,31.0,30.26,West,277,4.0,12.0,39,0.00,,,0.00,,2013-11-02 17:53:00,
2013-11-02 13:21:00,57.0,31.0,30.25,NW,315,3.0,14.0,37,0.00,,,0.00,,2013-11-02 18:21:00,
2013-11-02 13:52:00,58.0,30.0,30.24,West,278,4.0,11.0,34,0.00,,,0.00,,2013-11-02 18:52:00,
2013-11-02 14:21:00,58.0,29.0,30.22,West,268,6.0,13.0,33,0.00,,,0.00,,2013-11-02 19:21:00,
2013-11-02 14:52:00,59.0,30.0,30.21,West,271,4.0,11.0,33,0.00,,,0.00,,2013-11-02 19:52:00,
2013-11-02 15:22:00,60.0,29.0,30.21,NW,319,2.0,8.0,31,0.00,,,0.00,,2013-11-02 20:22:00,
2013-11-02 15:53:00,60.0,28.0,30.20,WNW,287,5.0,10.0,30,0.00,,,0.00,,2013-11-02 20:53:00,
2013-11-02 16:22:00,61.0,29.0,30.19,NW,313,4.0,8.0,29,0.00,,,0.00,,2013-11-02 21:22:00,
2013-11-02 16:54:00,60.0,27.0,30.19,NW,313,6.0,10.0,28,0.00,,,0.00,,2013-11-02 21:54:00,
2013-11-02 17:24:00,60.0,28.0,30.19,NNW,335,2.0,6.0,29,0.00,,,0.00,,2013-11-02 22:24:00,
2013-11-02 17:54:00,60.0,29.0,30.19,NW,316,0.0,6.0,31,0.00,,,0.00,,2013-11-02 22:54:00,
2013-11-02 18:22:00,58.0,29.0,30.18,North,352,0.0,5.0,33,0.00,,,0.00,,2013-11-02 23:22:00,
2013-11-02 18:52:00,56.0,31.0,30.19,North,350,0.0,0.0,39,0.00,,,0.00,,2013-11-02 23:52:00,
2013-11-02 19:21:00,53.0,32.0,30.19,North,350,0.0,0.0,45,0.00,,,0.00,,2013-11-03 00:21:00,
2013-11-02 19:52:00,51.0,35.0,30.20,North,350,0.0,0.0,54,0.00,,,0.00,,2013-11-03 00:52:00,
2013-11-02 20:21:00,49.0,34.0,30.21,North,350,0.0,0.0,57,0.00,,,0.00,,2013-11-03 01:21:00,
2013-11-02 20:52:00,50.0,35.0,30.21,North,350,0.0,0.0,56,0.00,,,0.00,,2013-11-03 01:52:00,
2013-11-02 21:21:00,48.0,34.0,30.21,North,350,0.0,0.0,58,0.00,,,0.00,,2013-11-03 02:21:00,
2013-11-02 21:52:00,47.0,36.0,30.20,North,350,0.0,0.0,65,0.00,,,0.00,,2013-11-03 02:52:00,
2013-11-02 22:22:00,46.0,36.0,30.21,North,350,0.0,1.0,69,0.00,,,0.00,,2013-11-03 03:22:00,
2013-11-02 22:54:00,45.0,36.0,30.21,North,350,0.0,1.0,70,0.00,,,0.00,,2013-11-03 03:54:00,
2013-11-02 23:02:00,-999.0,-99.9,30.21,North,350,0.0,2.0,-999,-99.99,,,-99.99,,2013-11-03 04:02:00,
2013-11-02 23:23:00,44.0,37.0,30.22,North,350,0.0,0.0,76,0.00,,,0.00,,2013-11-03 04:23:00,
2013-11-02 23:52:00,42.0,36.0,30.21,North,350,0.0,0.0,80,0.00,,,0.00,,2013-11-03 04:52:00,